Rbgn^[z[y[W
メイン
   新天体発見情報
     Comet P/2012 SB6 = 2020 M2 (Lemmon)
投稿するにはまず登録を

スレッド表示 | 新しいものから 前のトピック | 次のトピック | 下へ
投稿者 スレッド
佐藤裕久
投稿日時: 2020-7-23 11:45
モデレータ
登録日: 2005-6-12
居住地: 日本
投稿: 2099
オンライン
Comet P/2012 SB6 = 2020 M2 (Lemmon)

佐藤英貴氏(東京都文京区)は、遠隔操作により、6月29.8日UT、Siding Spring (NSW, オースト
ラリア)の0.51-m f/6.8アストログラフで得た60秒露出6枚のスタックCCD画像と6月30.44日、
Mayhill近郊 (NM, 米国)の0.43-m f/6.8 アストログラフで得た60秒露出14枚のスタックCCD画像
にからP/2012 SB6 (CBET 3251を参照)を検出した。
この彗星は、両晩とも強く集光した12"のコマが見えた。2日目の夜のみ、西に向かって10" の扇
のような尾の気配があった。6月29日と30日にそれぞれ6".6と7".6 の円形範囲で測定した全光度
は17.8等、17.6等であった。
NK 2419とICQ's 2019 and 2020 Comet Handbookの中野主一氏の予報に対し、Delta(T)は、-0.14 
dayであった。

検出位置は次のとおり、

     2020 UT             R.A. (2000) Decl.       Mag.   Observer
     June 29.82484    2 52 33.97   +19 24 15.6          Sato
          29.82758    2 52 34.24   +19 24 17.9   17.8     "
          30.43562    2 53 41.89   +19 31 19.6            "
          30.43954    2 53 42.33   +19 31 22.2            "
          30.44347    2 53 42.74   +19 31 25.1   17.6     "

MPCの連結軌道要素、位置推算表は次のとおり、

Orbital elements:
    P/2020 M2                                                                   
Epoch 2012 Nov. 9.0 TT = JDT 2456240.5                                          
T 2012 Oct. 31.97307 TT                                 Rudenko                 
q   2.4064482            (2000.0)            P               Q                  
n   0.12745359     Peri.   12.78702     +0.92559062     -0.37720050             
a   3.9105214      Node     9.55718     +0.32834362     +0.75846559             
e   0.3846222      Incl.   10.98970     +0.18834136     +0.53146001             
P   7.73                                                                        
From 182 observations 2012 Sept. 14-2020 June 30, mean residual 0".5.           
                                                                                
    P/2020 M2                                                                   
Epoch 2020 May 31.0 TT = JDT 2459000.5                                          
T 2020 June 19.24735 TT                                 Rudenko                 
q   2.2768753            (2000.0)            P               Q                  
n   0.13174734     Peri.   14.38773     +0.92385967     -0.38177228             
a   3.8250884      Node     8.21140     +0.32973961     +0.75803134             
e   0.4047522      Incl.   10.92892     +0.19430673     +0.52880849             
P   7.48                                                                        
From 182 observations 2012 Sept. 14-2020 June 30, mean residual 0".5.           
                                                                                
    P/2020 M2                                                                   
Epoch 2027 Dec. 21.0 TT = JDT 2461760.5                                         
T 2027 Dec. 21.34816 TT                                 Rudenko                 
q   2.2844444            (2000.0)            P               Q                  
n   0.13132847     Peri.   14.57971     +0.92304201     -0.38376311             
a   3.8332174      Node     8.14125     +0.33126994     +0.75746540             
e   0.4040400      Incl.   10.91719     +0.19558547     +0.52817804             
P   7.50                                                                        
From 182 observations 2012 Sept. 14-2020 June 30, mean residual 0".5.           
                                                                                
    P/2020 M2                                                                   
Epoch 2020 May 31.0 TT = JDT 2459000.5                                          
T 2020 June 19.24735 TT                                 Rudenko                 
q   2.2768753            (2000.0)            P               Q                  
n   0.13174734     Peri.   14.38773     +0.92385967     -0.38177228             
a   3.8250884      Node     8.21140     +0.32973961     +0.75803134             
e   0.4047522      Incl.   10.92892     +0.19430673     +0.52880849             
P   7.48                                                                        
From 182 observations 2012 Sept. 14-2020 June 30, mean residual 0".5.           
                                                                                
    P/2020 M2                                                                   
Epoch 2012 Nov. 9.0 TT = JDT 2456240.5                                          
T 2012 Oct. 31.97307 TT                                 Rudenko                 
q   2.4064482            (2000.0)            P               Q                  
n   0.12745359     Peri.   12.78702     +0.92559062     -0.37720050             
a   3.9105214      Node     9.55718     +0.32834362     +0.75846559             
e   0.3846222      Incl.   10.98970     +0.18834136     +0.53146001             
P   7.73                                                                        
From 182 observations 2012 Sept. 14-2020 June 30, mean residual 0".5.           
                                                                                
Ephemeris:
Date    TT    R. A. (2000) Decl.     Delta      r    Elong.  Phase   m1
2020 06 01    01 58 44.8 +13 22 35   2.9864  2.2807    38.4    16.0  18.0
...
2020 06 16    02 26 48.5 +16 36 43   2.8738  2.2770    45.3    18.5  17.9
...
2020 06 24    02 41 44.4 +18 15 05   2.8097  2.2771    49.1    19.7  17.8
...
2020 06 30    02 52 53.2 +19 26 16   2.7600  2.2782    51.9    20.6  17.8
2020 07 01    02 54 44.3 +19 37 54   2.7516  2.2785    52.4    20.7  17.8
2020 07 02    02 56 35.3 +19 49 28   2.7431  2.2787    52.9    20.8  17.8
...
2020 07 08    03 07 38.7 +20 57 32   2.6917  2.2809    55.8    21.6  17.7
...
2020 07 16    03 22 14.0 +22 24 35   2.6211  2.2851    59.8    22.6  17.7
...
2020 07 31    03 48 50.4 +24 56 21   2.4834  2.2968    67.6    24.1  17.6

(MPEC 2020-N01、CBET 4807)


スレッド表示 | 新しいものから 前のトピック | 次のトピック | トップ

投稿するにはまず登録を
 
© 1999 Tsutomu Seki.